Location: Newark
(46.7000°N, 60.6000°W)
Time: 07:01:03
(UTC+00:00)

Transit 2A Rocket - Pass Details

Date: 02 November 2020
Orbit: 589 x 914 km, 66.7° (Epoch: 02 December)

Event Time Altitude Azimuth Distance (km) Brightness Sun altitude
Rises 12:13:47 0° 201° (SSW) 3,534 8.7 12.1°
Reaches altitude 10° 12:16:19 10° 199° (SSW) 2,595 8.1 12.5°
Maximum altitude 12:22:20 65° 119° (ESE) 982 6.2 13.3°
Drops below altitude 10° 12:28:09 10° 39° (NE) 2,508 7.7 14.0°
Sets 12:30:34 0° 36° (NE) 3,409 8.3 14.3°
